College Station, TX

3:36 AM CST on January 18, 2017 (GMT -0600)
Easterwood

Weather History for KCLL - September, 2011

Change the Weather History Date:

Monday, September 12, 2011

  Actual Average Record
Temperature  
Mean Temperature 87 °F 81 °F  
Max Temperature 103 °F 92 °F 103 °F (2011)
Min Temperature 70 °F 71 °F 50 °F (1940)
Degree Days  
Heating Degree Days 0 0  
Month to date heating degree days 0 0  
Since 1 July heating degree days 0 0  
Cooling Degree Days 22 16  
Month to date cooling degree days 223 210  
Year to date cooling degree days 3370 2556  
Growing Degree Days 36 (Base 50)    
Moisture  
Dew Point 55 °F    
Average Humidity 48    
Maximum Humidity 79    
Minimum Humidity 16    
Precipitation  
Precipitation 0.00 in 0.11 in 4.26 in (2014)
Month to date precipitation 0.00 1.34  
Year to date precipitation 10.92 26.86  
Sea Level Pressure  
Sea Level Pressure 30.04 in    
Wind  
Wind Speed 5 mph (SSW)    
Max Wind Speed 17 mph    
Max Gust Speed 23 mph    
Visibility 10 miles    
Events      
T = Trace of Precipitation, MM = Missing Value Source: NWS Daily Summary

Daily Weather History Graph

Daily Weather History Graph

Search for Another Location

Airport or City:

Trip Planner

Search our weather history database for the weather conditions in past years. The results will help you decide how hot, cold, wet, or windy it might be!

Date:

Astronomy

Sep. 12, 2011 Rise Set
Actual Time 7:08 AM CDT 7:35 PM CDT
Civil Twilight 6:43 AM CDT 7:59 PM CDT
Nautical Twilight 6:15 AM CDT 8:27 PM CDT
Astronomical Twilight 5:46 AM CDT 8:56 PM CDT
Moon 7:31 PM CDT (9/12) 7:20 AM CDT (9/12)
Length of Visible Light 13h 15m
Length of Day
12h 27m
Full, 100% of the Moon is Illuminated
Sep 12
Full
Sep 20
Last Quarter
Sep 27
New
Oct 3
First Quarter
Oct 11
Full

Hourly Weather History & Observations

Time (CDT) Temp. Heat Index Dew Point Humidity Pressure Visibility Wind Dir Wind Speed Gust Speed Precip Events Conditions
12:53 AM 78.1 °F - 60.1 °F 54% 30.06 in 10.0 mi Calm Calm - N/A   Clear
1:53 AM 77.0 °F - 60.1 °F 56% 30.06 in 10.0 mi SSE 3.5 mph - N/A   Clear
2:53 AM 73.9 °F - 57.9 °F 57% 30.06 in 10.0 mi Calm Calm - N/A   Clear
3:53 AM 73.9 °F - 57.0 °F 55% 30.07 in 10.0 mi SSE 3.5 mph - N/A   Clear
4:53 AM 72.0 °F - 57.9 °F 61% 30.06 in 10.0 mi Calm Calm - N/A   Clear
5:53 AM 71.1 °F - 60.1 °F 68% 30.07 in 10.0 mi Calm Calm - N/A   Clear
6:53 AM 71.1 °F - 62.1 °F 73% 30.09 in 10.0 mi Calm Calm - N/A   Clear
7:53 AM 72.0 °F - 64.9 °F 78% 30.11 in 10.0 mi Calm Calm - N/A   Clear
8:53 AM 77.0 °F - 66.0 °F 69% 30.12 in 10.0 mi SSW 5.8 mph - N/A   Clear
9:53 AM 82.4 °F 83.4 °F 62.6 °F 51% 30.14 in 10.0 mi SW 8.1 mph - N/A   Clear
10:53 AM 89.6 °F 87.7 °F 55.4 °F 31% 30.14 in 10.0 mi SW 9.2 mph - N/A   Clear
11:53 AM 91.9 °F - 52.0 °F 26% 30.11 in 10.0 mi SW 9.2 mph - N/A   Clear
12:53 PM 96.1 °F - 50.0 °F 21% 30.08 in 10.0 mi SSW 9.2 mph - N/A   Clear
1:53 PM 98.6 °F - 48.2 °F 18% 30.06 in 10.0 mi West 5.8 mph 18.4 mph N/A   Clear
2:53 PM 100.4 °F - 48.2 °F 17% 30.03 in 10.0 mi WSW 8.1 mph 18.4 mph N/A   Clear
3:53 PM 100.9 °F - 48.0 °F 17% 29.98 in 10.0 mi WSW 9.2 mph - N/A   Clear
4:53 PM 100.9 °F - 46.9 °F 16% 29.95 in 10.0 mi WSW 8.1 mph - N/A   Clear
5:53 PM 100.9 °F - 46.9 °F 16% 29.94 in 10.0 mi SW 4.6 mph - N/A   Clear
6:53 PM 100.0 °F - 48.0 °F 17% 29.94 in 10.0 mi SSW 5.8 mph - N/A   Clear
7:53 PM 93.9 °F - 50.0 °F 22% 29.94 in 10.0 mi South 4.6 mph - N/A   Clear
8:53 PM 90.0 °F - 51.1 °F 26% 29.95 in 10.0 mi South 4.6 mph - N/A   Clear
9:53 PM 87.8 °F - 51.8 °F 29% 29.98 in 10.0 mi South 5.8 mph - N/A   Clear
10:53 PM 87.1 °F 86.1 °F 57.9 °F 37% 29.98 in 10.0 mi South 9.2 mph - N/A   Clear
11:53 PM 84.9 °F 84.8 °F 60.1 °F 43% 29.98 in 10.0 mi SSW 5.8 mph - N/A   Clear